Location: Wavehorne
(51.0500°N, 0.8333°E)
Time: 15:11:36
(UTC+00:00)

ERBS - Pass Details

Date: 20 June 2021
Orbit: 397 x 416 km, 57.0° (Epoch: 01 August)

Event Time Altitude Azimuth Distance (km) Brightness Sun altitude
Exits shadow 02:24:15 - 180° (S) 1,530 4.6 -8.9°
Reaches altitude 10° 02:24:33 10° 176° (S) 1,441 4.5 -8.9°
Maximum altitude 02:26:48 18° 131° (SE) 1,069 4.2 -8.7°
Drops below altitude 10° 02:29:04 10° 87° (E) 1,453 5.5 -8.5°
Sets 02:31:34 0° 67° (ENE) 2,321 7.1 -8.2°
